Location: Newark
(42.8481°N, 0.4872°E)
Time: 16:20:26
(UTC+00:00)

A-11 Canister half - Pass Details

Date: 04 November 2020
Orbit: 1525 x 1683 km, 47.3° (Epoch: 22 November)

Event Time Altitude Azimuth Distance (km) Brightness Sun altitude
Rises 17:56:30 0° 294° (WNW) 4,733 12.6 -13.3°
Reaches altitude 10° 17:59:36 10° 293° (WNW) 3,732 12.0 -13.8°
Maximum altitude 18:08:57 75° 211° (SSW) 1,575 9.1 -15.5°
Drops below altitude 10° 18:18:11 10° 128° (SE) 3,688 10.6 -17.2°
Enters shadow 18:18:28 - 127° (SE) 3,777 10.6 -17.3°
Sets 18:21:13 0° 126° (SE) 4,674 - -17.8°
